When you browse on this site, cookies collect data to enhance your experience and personalize the content and advertising you see.
Visit our Privacy Policy to learn more. By continuing to use the site, you agree to this use of cookies and data.
EN

Hourly Weather Szczecin

Today, 10 July, Friday

Time Temperature Precipitation Wind Pressure Humidity
00:00 +16°C° 0 mm 3 mps 755 mmHg 96%
01:00 +14°C° 0 mm 3 mps 755 mmHg 97%
02:00 +15°C° 0 mm 2 mps 755 mmHg 97%
03:00 +15°C° 0 mm 1 mps 754 mmHg 98%
04:00 +15°C° 0 mm 1 mps 754 mmHg 98%
05:00 +15°C° 0.3 mm 1 mps 754 mmHg 97%
06:00 +15°C° 0.3 mm 1 mps 754 mmHg 97%
07:00 +15°C° 0.3 mm 2 mps 754 mmHg 96%
08:00 +16°C° 0.5 mm 2 mps 754 mmHg 96%
09:00 +17°C° 0.5 mm 3 mps 753 mmHg 96%
10:00 +17°C° 0.5 mm 4 mps 753 mmHg 95%
11:00 +18°C° 1 mm 3 mps 752 mmHg 94%
12:00 +18°C° 1 mm 3 mps 752 mmHg 93%
13:00 +19°C° 1 mm 3 mps 751 mmHg 92%
14:00 +20°C° 0.7 mm 4 mps 751 mmHg 89%
15:00 +21°C° 0.7 mm 5 mps 751 mmHg 85%
16:00 +22°C° 0.7 mm 7 mps 751 mmHg 81%
17:00 +20°C° 0.2 mm 7 mps 752 mmHg 83%
18:00 +17°C° 0.2 mm 7 mps 753 mmHg 84%
19:00 +14°C° 0.2 mm 7 mps 754 mmHg 85%
20:00 +12°C° 0 mm 7 mps 755 mmHg 86%
21:00 +11°C° 0 mm 6 mps 756 mmHg 87%
22:00 +10°C° 0 mm 5 mps 757 mmHg 88%
23:00 +9°C° 0 mm 5 mps 758 mmHg 89%

Tomorrow, 11 July, Saturday

Time Temperature Precipitation Wind Pressure Humidity
00:00 +9°C° 0 mm 5 mps 759 mmHg 89%
01:00 +9°C° 0 mm 5 mps 759 mmHg 90%
02:00 +9°C° 0 mm 5 mps 759 mmHg 91%
03:00 +8°C° 0 mm 5 mps 760 mmHg 92%
04:00 +8°C° 0 mm 4 mps 760 mmHg 93%
05:00 +10°C° 0 mm 4 mps 760 mmHg 87%
06:00 +10°C° 0 mm 5 mps 761 mmHg 81%
07:00 +13°C° 0 mm 5 mps 761 mmHg 75%
08:00 +14°C° 0 mm 5 mps 761 mmHg 69%
09:00 +15°C° 0 mm 5 mps 762 mmHg 64%
10:00 +17°C° 0 mm 5 mps 762 mmHg 58%
11:00 +17°C° 0 mm 5 mps 762 mmHg 56%
12:00 +19°C° 0 mm 4 mps 762 mmHg 53%
13:00 +20°C° 0 mm 4 mps 762 mmHg 50%
14:00 +20°C° 0.2 mm 4 mps 763 mmHg 54%
15:00 +19°C° 0.2 mm 4 mps 763 mmHg 57%
16:00 +19°C° 0.2 mm 4 mps 763 mmHg 61%
17:00 +18°C° 0.3 mm 4 mps 763 mmHg 67%
18:00 +17°C° 0.3 mm 3 mps 763 mmHg 73%
19:00 +16°C° 0.3 mm 3 mps 763 mmHg 79%
20:00 +14°C° 0 mm 3 mps 763 mmHg 82%
21:00 +12°C° 0 mm 3 mps 764 mmHg 85%
22:00 +12°C° 0 mm 2 mps 764 mmHg 89%
23:00 +12°C° 0 mm 2 mps 764 mmHg 89%

Day after tomorrow, 12 July, Sunday

Time Temperature Precipitation Wind Pressure Humidity
00:00 +10°C° 0 mm 3 mps 764 mmHg 90%
01:00 +10°C° 0 mm 3 mps 764 mmHg 91%
02:00 +9°C° 0 mm 3 mps 765 mmHg 92%
03:00 +9°C° 0 mm 3 mps 765 mmHg 92%
04:00 +8°C° 0 mm 3 mps 765 mmHg 93%
05:00 +10°C° 0 mm 3 mps 765 mmHg 89%
06:00 +11°C° 0 mm 3 mps 765 mmHg 84%
07:00 +12°C° 0 mm 4 mps 765 mmHg 80%
08:00 +14°C° 0 mm 4 mps 765 mmHg 72%
09:00 +15°C° 0 mm 4 mps 766 mmHg 64%
10:00 +17°C° 0 mm 5 mps 766 mmHg 56%
11:00 +17°C° 0.1 mm 5 mps 766 mmHg 56%
12:00 +19°C° 0.1 mm 5 mps 766 mmHg 56%
13:00 +19°C° 0.1 mm 5 mps 766 mmHg 56%
14:00 +19°C° 0.1 mm 5 mps 765 mmHg 56%
15:00 +19°C° 0.1 mm 5 mps 765 mmHg 56%
16:00 +19°C° 0.1 mm 5 mps 765 mmHg 57%
17:00 +19°C° 0 mm 5 mps 765 mmHg 61%
18:00 +18°C° 0 mm 4 mps 765 mmHg 66%
19:00 +17°C° 0 mm 3 mps 765 mmHg 71%
20:00 +16°C° 0 mm 3 mps 765 mmHg 77%
21:00 +13°C° 0 mm 3 mps 765 mmHg 84%
22:00 +12°C° 0 mm 3 mps 765 mmHg 91%
23:00 +12°C° 0 mm 3 mps 765 mmHg 91%

13 July, Monday

Time Temperature Precipitation Wind Pressure Humidity
00:00 +12°C° 0 mm 3 mps 765 mmHg 91%
01:00 +12°C° 0 mm 3 mps 765 mmHg 91%
02:00 +11°C° 0 mm 3 mps 765 mmHg 93%
03:00 +11°C° 0 mm 3 mps 765 mmHg 95%
04:00 +10°C° 0 mm 3 mps 765 mmHg 96%
05:00 +11°C° 0 mm 3 mps 765 mmHg 92%
06:00 +13°C° 0 mm 3 mps 765 mmHg 87%
07:00 +14°C° 0 mm 3 mps 765 mmHg 83%
08:00 +15°C° 0.1 mm 4 mps 765 mmHg 78%
09:00 +17°C° 0.1 mm 4 mps 765 mmHg 74%
10:00 +18°C° 0.1 mm 4 mps 765 mmHg 69%
11:00 +19°C° 0.1 mm 4 mps 764 mmHg 68%
12:00 +19°C° 0.1 mm 4 mps 764 mmHg 66%
13:00 +19°C° 0.1 mm 4 mps 764 mmHg 64%
14:00 +19°C° 0 mm 4 mps 764 mmHg 64%
15:00 +19°C° 0 mm 4 mps 763 mmHg 65%
16:00 +19°C° 0 mm 4 mps 763 mmHg 65%
17:00 +19°C° 0 mm 3 mps 763 mmHg 69%
18:00 +18°C° 0 mm 3 mps 763 mmHg 72%
19:00 +17°C° 0 mm 2 mps 763 mmHg 76%
20:00 +16°C° 0 mm 2 mps 763 mmHg 80%
21:00 +15°C° 0 mm 1 mps 763 mmHg 84%
22:00 +13°C° 0 mm 1 mps 763 mmHg 88%
23:00 +13°C° 0 mm 1 mps 763 mmHg 89%

14 July, Tuesday

Time Temperature Precipitation Wind Pressure Humidity
00:00 +13°C° 0 mm 2 mps 763 mmHg 90%
01:00 +13°C° 0 mm 2 mps 763 mmHg 91%
02:00 +12°C° 0 mm 2 mps 762 mmHg 92%
03:00 +12°C° 0 mm 2 mps 762 mmHg 93%
04:00 +12°C° 0 mm 1 mps 762 mmHg 93%
05:00 +14°C° 0 mm 1 mps 762 mmHg 87%
06:00 +15°C° 0 mm 1 mps 762 mmHg 80%
07:00 +18°C° 0 mm 1 mps 762 mmHg 74%
08:00 +19°C° 0 mm 1 mps 761 mmHg 68%
09:00 +21°C° 0 mm 1 mps 761 mmHg 63%
10:00 +21°C° 0 mm 2 mps 761 mmHg 58%
11:00 +23°C° 0.1 mm 1 mps 761 mmHg 56%
12:00 +24°C° 0.1 mm 1 mps 760 mmHg 54%
13:00 +24°C° 0.1 mm 1 mps 760 mmHg 52%
14:00 +24°C° 0.3 mm 1 mps 759 mmHg 55%
15:00 +24°C° 0.3 mm 2 mps 759 mmHg 58%
16:00 +23°C° 0.3 mm 2 mps 759 mmHg 61%
17:00 +23°C° 0.2 mm 2 mps 758 mmHg 65%
18:00 +21°C° 0.2 mm 2 mps 758 mmHg 69%
19:00 +20°C° 0.2 mm 2 mps 758 mmHg 73%
20:00 +19°C° 0 mm 2 mps 758 mmHg 74%
21:00 +18°C° 0 mm 2 mps 758 mmHg 75%
22:00 +16°C° 0 mm 2 mps 758 mmHg 76%
23:00 +16°C° 0 mm 2 mps 757 mmHg 76%

15 July, Wednesday

Time Temperature Precipitation Wind Pressure Humidity
00:00 +16°C° 0 mm 3 mps 757 mmHg 77%
01:00 +16°C° 0 mm 3 mps 757 mmHg 77%
02:00 +16°C° 0 mm 3 mps 757 mmHg 79%
03:00 +14°C° 0 mm 3 mps 756 mmHg 81%
04:00 +14°C° 0 mm 3 mps 756 mmHg 83%
05:00 +16°C° 0 mm 3 mps 756 mmHg 81%
06:00 +17°C° 0 mm 3 mps 756 mmHg 79%
07:00 +18°C° 0 mm 3 mps 756 mmHg 77%
08:00 +19°C° 0 mm 4 mps 755 mmHg 71%
09:00 +21°C° 0 mm 4 mps 755 mmHg 65%
10:00 +23°C° 0 mm 4 mps 755 mmHg 60%
11:00 +23°C° 0.8 mm 4 mps 755 mmHg 64%
12:00 +22°C° 0.8 mm 3 mps 754 mmHg 68%
13:00 +22°C° 0.8 mm 3 mps 754 mmHg 72%
14:00 +21°C° 1.4 mm 3 mps 754 mmHg 77%
15:00 +20°C° 1.4 mm 4 mps 754 mmHg 82%
16:00 +19°C° 1.4 mm 5 mps 753 mmHg 87%
17:00 +18°C° 0.8 mm 4 mps 753 mmHg 88%
18:00 +18°C° 0.8 mm 4 mps 753 mmHg 90%
19:00 +17°C° 0.8 mm 4 mps 753 mmHg 91%
20:00 +15°C° 0.1 mm 4 mps 753 mmHg 92%
21:00 +15°C° 0.1 mm 4 mps 754 mmHg 93%
22:00 +14°C° 0.1 mm 4 mps 754 mmHg 93%
23:00 +14°C° 0.2 mm 4 mps 754 mmHg 93%
Show more